CAPE
0 0 0 0 0 0 0 0 0 0 0 0 0 0 0 0 0 0 0 0 0 0 0 0 0 0 0 0 0 0 0 0 0 0 0 0 0 0 0 0 0 0 0 0 0
1 1 0 0 0 0 0 0 0 0 0 0 0 0 0 0 0 0 0 0 0 0 0 0 0 0 0 0 0 0 0 0 0 0 0 0 0 0 0 0 0 0 0 0 0
1 1 0 0 0 0 0 0 0 0 0 0 0 0 0 0 0 0 0 0 0 0 0 0 0 0 0 0 0 0 0 0 0 0 0 0 0 0 0 0 0 0 0 0 0
2 0 0 0 0 0 0 0 0 0 0 0 0 0 0 0 0 0 0 0 0 0 0 0 0 0 0 0 0 0 0 0 0 0 0 0 0 0 0 0 0 0 0 0 0
0 0 0 0 0 0 0 0 0 0 0 0 0 0 0 0 0 0 0 0 0 0 0 0 0 0 0 0 0 0 0 0 0 0 0 0 0 0 0 0 0 0 0 0 0
0 0 0 0 0 0 0 0 0 0 0 0 0 0 0 0 0 0 0 0 0 0 0 0 0 0 0 0 0 0 0 0 0 0 0 9 10 0 0 0 0 0 0 0 0
1 0 0 0 0 0 0 0 0 0 0 0 0 0 0 0 0 0 0 0 0 0 0 0 0 0 0 0 0 0 2 1 0 0 8 2 1 2 5 0 0 0 0 0 0
0 0 0 0 0 0 0 0 0 0 0 0 0 0 0 0 0 0 0 0 0 0 0 0 0 0 0 0 0 0 0 0 0 0 0 0 16 6 10 6 0 0 0 0 0
0 0 0 0 0 0 0 0 0 0 0 0 0 0 0 0 0 0 0 0 0 0 0 0 0 0 0 0 0 0 0 0 0 0 0 0 8 5 3 7 5 0 0 0 0
0 0 0 0 0 0 0 0 0 0 0 0 0 0 0 0 0 0 0 0 0 0 0 0 0 0 0 0 0 0 0 0 1 0 0 1 11 6 3 4 2 2 0 0 0
0 0 0 0 0 0 0 0 0 0 0 0 0 0 0 0 0 0 0 0 0 0 0 0 0 0 0 0 0 0 1 2 1 0 0 0 14 8 3 2 2 4 2 2 1
0 0 0 0 0 0 0 0 0 0 0 0 0 0 0 0 0 0 0 0 0 0 0 0 0 0 0 0 0 0 0 3 0 0 0 3 15 9 6 13 15 12 9 7 2
0 0 0 0 0 0 0 0 0 0 0 0 0 0 0 0 0 0 0 0 0 0 0 0 0 0 0 0 0 0 1 0 0 0 0 0 0 3 6 6 4 4 6 7 7
0 0 0 0 0 0 0 0 0 0 0 0 0 0 0 0 0 0 0 0 0 0 0 0 0 0 0 0 0 0 0 0 2 2 31 6 27 2 3 1 2 3 6 9 11
0 0 0 0 0 0 0 0 0 0 0 0 0 0 0 0 0 0 0 0 0 0 0 0 0 0 0 0 0 0 0 0 3 3 4 2 21 2 0 0 4 5 5 7 9
0 0 0 0 0 0 0 0 0 0 0 0 0 0 0 0 0 0 0 0 0 0 0 0 0 0 0 0 0 0 0 0 3 2 10 2 3 3 5 10 6 2 2 3 9
0 0 0 0 0 0 0 0 0 0 0 0 0 0 0 0 0 0 0 0 0 0 0 0 0 0 0 0 0 0 0 1 5 4 8 0 1 1 2 5 7 3 2 1 5
0 0 0 0 0 0 0 0 0 0 0 0 0 0 0 0 0 0 0 0 0 0 0 0 0 0 0 0 0 0 0 0 1 5 1 0 1 5 0 0 0 0 1 0 1
0 0 0 0 0 0 0 0 0 0 0 0 0 0 0 0 0 0 0 0 0 0 0 0 0 0 0 0 0 0 0 0 2 0 2 0 0 0 0 0 0 0 0 0 0
0 0 0 0 0 0 0 0 0 0 0 0 0 0 0 0 0 0 0 0 0 0 0 0 0 0 0 0 0 0 0 0 1 0 0 0 0 1 0 0 0 0 0 0 0
0 0 0 0 0 0 0 0 0 0 0 0 0 0 0 0 0 0 0 0 0 0 0 0 0 0 0 0 0 0 0 0 0 0 1 1 1 0 0 0 0 0 0 0 0
0 0 0 0 0 0 0 0 0 0 0 0 0 0 0 0 0 0 0 0 0 0 0 0 0 0 0 0 0 0 0 0 2 0 0 0 0 0 0 0 0 0 0 0 0
0 0 0 0 0 0 0 0 0 0 0 0 0 0 0 0 0 0 0 0 0 0 0 0 0 0 0 0 0 0 0 0 0 0 0 1 0 0 0 0 0 0 0 0 0
0 0 0 0 0 0 0 0 0 0 0 0 0 0 0 0 0 0 0 0 0 0 0 0 0 0 0 0 0 0 0 0 0 2 0 0 0 0 0 0 0 0 0 0 0
0 0 0 0 0 0 0 0 0 0 0 0 0 0 0 0 0 0 0 0 0 0 0 0 0 0 0 0 0 0 0 0 0 0 0 0 0 0 0 0 0 0 0 0 0
0 0 0 0 0 0 0 0 0 0 0 0 0 0 0 0 0 0 0 0 0 0 0 0 0 0 0 0 0 0 0 0 0 0 0 0 0 0 0 0 0 0 0 0 0
0 0 0 0 0 0 0 0 0 0 0 0 0 0 0 0 0 0 0 0 0 0 0 0 0 0 0 0 0 0 0 0 0 0 0 0 0 0 0 0 0 0 0 0 0
CIN
0 0 0 0 0 0 0 0 0 0 0 0 0 0 0 0 0 0 0 0 0 0 0 0 0 0 0 0 0 0 0 0 0 0 0 0 0 0 0 0 0 0 0 0 0
0 0 0 0 0 0 0 0 0 0 0 0 0 0 0 0 0 0 0 0 0 0 0 0 0 0 0 0 0 0 0 0 0 0 0 0 0 0 0 0 0 0 0 0 0
0 0 0 0 0 0 0 0 0 0 0 0 0 0 0 0 0 0 0 0 0 0 0 0 0 0 0 0 0 0 0 0 0 0 0 0 0 0 0 0 0 0 0 0 0
0 0 0 0 0 0 0 0 0 0 0 0 0 0 0 0 0 0 0 0 0 0 0 0 0 0 0 0 0 0 0 0 0 0 0 0 0 0 0 0 0 0 0 0 0
0 0 0 0 0 0 0 0 0 0 0 0 0 0 0 0 0 0 0 0 0 0 0 0 0 0 0 0 0 0 0 0 0 0 0 0 0 0 0 0 0 0 0 0 0
0 0 0 0 0 0 0 0 0 0 0 0 0 0 0 0 0 0 0 0 0 0 0 0 0 0 0 0 0 0 0 0 0 0 0 0 0 0 0 0 0 0 0 0 0
0 0 0 0 0 0 0 0 0 0 0 0 0 0 0 0 0 0 0 0 0 0 0 0 0 0 0 0 0 0 0 0 0 0 0 -1 0 -1 0 0 0 0 0 0 0
0 0 0 0 0 0 0 0 0 0 0 0 0 0 0 0 0 0 0 0 0 0 0 0 0 0 0 0 0 0 0 0 0 0 0 0 -1 0 0 0 0 0 0 0 0
0 0 0 0 0 0 0 0 0 0 0 0 0 0 0 0 0 0 0 0 0 0 0 0 0 0 0 0 0 0 0 0 0 0 0 0 0 0 0 0 0 0 0 0 0
0 0 0 0 0 0 0 0 0 0 0 0 0 0 0 0 0 0 0 0 0 0 0 0 0 0 0 0 0 0 0 0 0 0 0 0 0 0 0 0 0 0 0 0 0
0 0 0 0 0 0 0 0 0 0 0 0 0 0 0 0 0 0 0 0 0 0 0 0 0 0 0 0 0 0 0 0 0 0 0 0 0 0 0 0 0 0 0 0 0
0 0 0 0 0 0 0 0 0 0 0 0 0 0 0 0 0 0 0 0 0 0 0 0 0 0 0 0 0 0 0 0 0 0 0 0 0 0 0 0 0 0 0 0 0
0 0 0 0 0 0 0 0 0 0 0 0 0 0 0 0 0 0 0 0 0 0 0 0 0 0 0 0 0 0 0 0 0 0 0 0 0 0 0 0 0 0 0 0 0
0 0 0 0 0 0 0 0 0 0 0 0 0 0 0 0 0 0 0 0 0 0 0 0 0 0 0 0 0 0 0 0 0 0 0 0 0 0 0 0 0 0 0 0 0
0 0 0 0 0 0 0 0 0 0 0 0 0 0 0 0 0 0 0 0 0 0 0 0 0 0 0 0 0 0 0 0 0 0 0 0 0 0 0 0 0 0 0 0 0
0 0 0 0 0 0 0 0 0 0 0 0 0 0 0 0 0 0 0 0 0 0 0 0 0 0 0 0 0 0 0 0 0 0 0 0 0 0 0 0 0 0 0 0 0
0 0 0 0 0 0 0 0 0 0 0 0 0 0 0 0 0 0 0 0 0 0 0 0 0 0 0 0 0 0 0 0 0 0 0 0 0 0 0 0 0 0 0 0 0
0 0 0 0 0 0 0 0 0 0 0 0 0 0 0 0 0 0 0 0 0 0 0 0 0 0 0 0 0 0 0 0 0 0 0 0 0 0 0 0 0 0 0 0 0
0 0 0 0 0 0 0 0 0 0 0 0 0 0 0 0 0 0 0 0 0 0 0 0 0 0 0 0 0 0 0 0 0 0 0 0 0 0 0 0 0 0 0 0 0
0 0 0 0 0 0 0 0 0 0 0 0 0 0 0 0 0 0 0 0 0 0 0 0 0 0 0 0 0 0 0 0 0 0 0 0 0 0 0 0 0 0 0 0 0
0 0 0 0 0 0 0 0 0 0 0 0 0 0 0 0 0 0 0 0 0 0 0 0 0 0 0 0 0 0 0 0 0 0 0 0 0 0 0 0 0 0 0 0 0
0 0 0 0 0 0 0 0 0 0 0 0 0 0 0 0 0 0 0 0 0 0 0 0 0 0 0 0 0 0 0 0 0 0 0 0 0 0 0 0 0 0 0 0 0
0 0 0 0 0 0 0 0 0 0 0 0 0 0 0 0 0 0 0 0 0 0 0 0 0 0 0 0 0 0 0 0 0 0 0 0 0 0 0 0 0 0 0 0 0
0 0 0 0 0 0 0 0 0 0 0 0 0 0 0 0 0 0 0 0 0 0 0 0 0 0 0 0 0 0 0 0 0 0 0 0 0 0 0 0 0 0 0 0 0
0 0 0 0 0 0 0 0 0 0 0 0 0 0 0 0 0 0 0 0 0 0 0 0 0 0 0 0 0 0 0 0 0 0 0 0 0 0 0 0 0 0 0 0 0
0 0 0 0 0 0 0 0 0 0 0 0 0 0 0 0 0 0 0 0 0 0 0 0 0 0 0 0 0 0 0 0 0 0 0 0 0 0 0 0 0 0 0 0 0
0 0 0 0 0 0 0 0 0 0 0 0 0 0 0 0 0 0 0 0 0 0 0 0 0 0 0 0 0 0 0 0 0 0 0 0 0 0 0 0 0 0 0 0 0
Wind_Speed
12 12 12 11 11 9 9 10 10 9 9 8 8 10 7 6 12 28 26 24 23 25 20 16 14 19 2 3 3 3 7 14 20 15 11 14 11 6 9 11 10 3 7 8 16
12 12 11 9 9 9 7 8 10 11 12 9 6 13 5 4 5 24 26 28 24 23 15 16 16 14 4 4 3 6 8 10 10 12 10 16 13 16 12 11 12 10 2 12 15
12 12 11 10 8 7 7 6 6 10 15 14 12 16 9 2 4 14 31 27 22 19 10 7 8 5 5 4 6 5 9 13 6 12 16 18 19 14 14 16 14 6 14 17 17
12 12 11 10 9 7 5 3 3 7 9 15 11 15 19 3 7 16 28 24 19 16 14 10 11 6 6 7 6 8 10 13 15 18 23 21 20 22 20 22 23 19 18 19 15
12 13 12 10 10 9 6 4 1 2 5 10 15 9 4 12 10 21 23 18 12 13 12 9 14 7 8 8 11 12 12 15 20 19 19 21 22 24 24 22 27 24 17 18 16
13 13 13 12 12 11 7 3 0 2 2 6 9 10 8 11 11 19 16 14 14 12 12 16 10 3 5 9 7 11 17 19 18 17 14 17 16 13 12 23 21 21 19 15 14
13 13 14 13 14 11 7 1 2 3 3 6 9 8 18 9 9 18 17 11 11 11 13 7 13 22 10 10 12 16 15 11 15 16 15 19 15 13 20 23 16 12 10 11 14
12 13 13 13 12 9 6 4 5 6 6 11 9 6 7 3 7 19 18 12 13 15 8 10 7 7 17 14 4 12 3 14 13 12 8 11 4 15 19 17 13 13 12 13 15
12 12 13 13 11 7 4 10 9 11 8 4 2 1 5 3 9 16 11 10 7 9 16 10 8 10 16 17 5 7 15 19 14 15 17 9 14 16 17 14 15 16 16 16 16
12 11 13 13 13 7 3 5 9 2 5 3 4 4 4 6 4 13 10 10 10 7 5 11 6 12 14 14 12 19 18 14 17 12 15 9 7 12 17 17 17 17 18 18 18
12 11 11 8 11 8 2 3 4 2 11 9 5 4 3 3 1 18 13 4 6 10 7 7 13 19 19 16 14 14 15 17 16 12 15 13 2 11 15 18 20 20 18 19 19
12 10 10 4 6 5 3 1 2 3 8 3 4 2 2 2 4 21 15 5 13 16 11 4 17 16 16 16 19 15 15 15 14 11 16 7 7 8 14 18 17 18 20 21 22
13 11 11 3 2 4 4 3 3 4 2 3 2 2 3 2 6 15 15 2 7 13 11 9 8 15 16 17 22 19 12 22 21 20 8 12 5 9 8 14 18 19 18 20 21
13 11 9 1 1 2 2 0 1 2 3 3 2 4 2 2 4 8 11 5 5 10 7 3 9 15 18 18 21 16 26 19 11 7 2 2 1 11 10 13 20 21 21 22 22
13 10 6 5 5 2 3 1 1 2 4 3 2 2 3 4 7 13 9 4 7 6 6 5 9 13 15 19 17 16 26 11 7 4 6 11 6 9 8 17 22 20 22 21 21
14 9 1 1 2 3 3 3 2 2 2 2 1 5 1 6 3 8 7 7 2 2 4 4 4 5 8 18 9 23 14 3 2 2 1 11 6 7 10 15 19 19 20 21 21
14 4 2 1 1 5 4 3 2 2 1 4 3 5 2 6 2 7 6 10 9 7 11 7 1 4 10 15 8 21 16 3 0 3 4 11 3 4 8 12 14 17 19 19 19
11 1 3 2 3 5 3 3 2 3 2 1 2 3 3 7 3 6 4 6 7 5 4 8 4 8 9 6 10 8 7 5 6 6 9 6 6 5 5 11 12 13 14 17 19
4 1 1 2 5 2 4 1 1 1 1 4 2 3 1 1 4 4 5 3 2 6 6 8 4 2 3 4 9 7 7 3 6 5 6 4 2 5 7 13 14 16 17 17 18
2 0 1 2 5 3 3 2 3 1 3 1 1 2 3 4 5 5 3 4 2 0 2 4 8 3 2 4 7 6 2 1 1 8 7 3 4 6 15 17 16 17 16 16 16
1 2 2 4 3 3 0 3 3 2 1 1 2 2 2 3 2 3 2 4 3 3 2 5 3 0 4 5 4 2 4 5 3 4 5 7 1 3 6 12 14 14 14 15 15
2 3 2 3 3 1 2 4 4 4 1 1 1 2 3 3 3 3 4 4 6 3 2 4 2 7 3 3 2 1 1 2 4 3 1 4 7 5 5 9 10 12 13 13 12
4 2 2 3 3 2 2 3 2 4 4 4 5 4 2 3 3 4 4 1 8 4 1 4 3 7 4 4 5 6 4 3 3 1 5 5 5 3 6 9 9 10 12 13 12
3 2 1 3 1 3 4 3 4 1 3 3 3 3 3 4 6 3 4 2 7 4 2 2 4 7 7 9 4 7 6 6 3 5 1 11 18 17 14 14 12 11 11 11 11
2 2 2 2 2 2 1 6 4 5 2 5 4 10 6 4 3 5 5 2 4 2 3 3 6 6 13 18 15 18 17 9 11 9 8 3 8 18 17 14 10 10 11 11 10
2 2 1 0 1 2 1 6 8 4 9 6 7 5 10 6 6 3 4 4 3 4 3 2 4 5 8 4 5 13 16 16 15 8 13 17 21 15 12 7 11 11 9 10 8
2 1 1 3 2 2 3 3 5 6 7 2 8 4 8 12 9 4 4 1 1 3 5 4 4 4 6 2 12 8 9 12 7 9 7 8 7 4 10 10 11 10 9 9 7
Wind_Direction
40 36 36 33 35 33 32 30 28 33 22 17 28 13 157 109 41 29 29 347 348 347 340 341 1 353 10 41 339 267 246 261 267 274 290 9 334 340 318 266 252 257 325 6 339
28 31 25 22 25 25 21 24 30 24 15 14 29 11 136 120 69 31 356 350 348 355 346 354 356 353 48 27 20 243 249 287 26 360 339 321 326 318 304 254 250 251 328 345 352
22 21 17 8 17 15 26 12 32 35 40 41 49 30 147 162 84 356 348 349 349 354 342 350 334 352 57 352 14 332 261 344 325 328 330 315 307 325 292 269 257 309 322 330 330
12 16 11 5 3 15 9 24 29 30 52 41 46 50 43 320 32 343 340 346 348 355 9 7 8 19 28 10 6 304 288 305 314 320 312 300 299 283 281 274 295 306 314 312 324
11 12 2 1 356 349 340 346 330 39 58 58 54 43 35 54 22 337 338 347 356 4 26 29 34 16 27 333 314 281 310 308 308 307 297 297 283 280 274 280 283 285 293 302 308
6 9 6 359 355 344 320 291 264 141 43 77 71 58 65 72 320 346 349 1 6 16 55 56 33 66 16 318 312 320 304 299 298 306 309 311 297 278 329 329 296 292 292 306 351
358 359 1 358 358 7 36 140 162 139 140 114 88 89 64 89 13 356 357 22 22 33 59 68 47 50 337 332 340 303 294 312 286 344 319 339 277 25 350 324 260 294 346 346 356
358 353 357 355 358 0 26 77 102 117 112 106 95 80 76 175 344 14 347 22 30 38 77 55 49 45 19 320 324 347 299 328 325 339 336 338 280 22 7 357 5 2 1 360 359
358 357 353 353 355 9 25 104 75 78 87 127 74 84 70 200 354 2 354 353 31 51 48 48 44 35 9 4 4 355 321 322 327 329 336 347 309 13 16 11 17 4 5 4 357
359 2 355 352 357 2 67 60 46 73 27 90 103 153 97 347 335 353 6 13 37 38 56 33 38 24 15 13 350 322 318 308 311 332 341 308 42 25 20 13 19 15 4 4 356
357 359 355 355 6 18 326 289 237 135 38 58 74 66 351 0 224 8 358 327 17 58 28 25 24 17 358 354 337 311 304 298 296 327 337 324 21 39 28 21 17 12 5 3 2
351 354 358 354 41 35 82 217 25 53 114 70 106 101 13 323 12 11 358 40 27 36 9 37 32 357 345 346 343 335 320 331 309 309 318 306 94 69 32 26 14 7 4 2 358
352 354 2 110 46 64 63 102 331 290 94 116 83 27 357 337 48 2 8 350 26 31 23 43 1 349 347 351 347 340 338 325 305 315 252 241 255 45 34 21 11 12 6 6 2
351 351 5 207 217 98 66 142 274 291 241 73 38 52 349 236 70 28 7 346 51 9 9 35 346 350 347 351 345 320 343 321 305 307 66 264 4 36 4 1 8 5 4 1 360
346 345 32 32 126 123 107 159 264 240 263 69 63 354 15 46 320 32 26 12 41 357 328 15 326 345 349 339 336 311 325 308 295 263 284 28 284 21 17 356 359 360 357 355 356
340 331 87 94 89 86 126 139 217 225 246 110 41 352 346 31 36 339 13 19 41 3 3 332 313 327 343 324 336 334 334 255 186 291 173 359 315 49 10 345 343 350 351 350 350
340 334 94 93 54 136 145 161 225 283 124 32 1 355 31 2 33 20 19 31 28 348 9 330 119 336 355 339 351 1 359 344 186 8 356 360 44 45 352 345 341 340 342 345 347
346 43 68 63 141 151 165 197 264 76 337 46 350 302 49 0 61 17 31 35 56 31 329 0 2 10 357 23 317 5 4 20 318 344 326 4 13 46 275 328 347 345 341 347 350
348 21 162 58 142 211 237 86 350 145 18 339 289 294 82 80 330 337 47 32 357 7 9 348 262 338 356 28 337 356 17 353 288 211 262 353 167 241 334 347 347 347 351 351 350
328 217 152 113 163 222 257 113 138 93 131 198 333 325 317 340 322 353 33 143 142 234 243 110 285 179 18 181 66 22 6 274 15 347 321 322 270 354 348 346 346 344 348 345 346
339 261 90 132 200 240 18 103 138 141 191 248 200 226 243 302 298 294 339 173 198 144 182 154 242 99 231 34 349 9 28 47 286 326 324 313 49 177 323 335 332 330 338 339 340
334 277 88 155 243 13 112 125 122 160 149 156 194 221 235 187 251 259 256 245 166 178 270 169 252 281 333 88 56 24 359 356 335 356 328 292 279 176 249 313 314 325 330 334 336
329 292 143 220 260 127 129 105 164 159 191 184 202 223 210 225 261 230 238 153 173 198 221 160 185 295 176 158 174 247 160 100 71 277 242 288 287 172 252 315 333 325 329 331 332
304 295 129 76 25 136 156 179 179 205 162 189 174 153 190 233 226 274 250 185 192 218 140 244 260 252 274 302 349 283 202 193 230 262 178 244 288 296 303 322 319 328 330 326 331
4 26 17 289 92 103 160 154 153 204 223 197 214 222 193 234 218 226 217 241 184 187 140 253 262 253 262 271 277 266 266 221 201 226 239 332 255 288 297 303 294 309 309 326 332
339 322 168 53 76 154 208 210 199 168 170 214 228 198 197 226 220 252 166 212 263 155 188 193 275 298 284 235 234 262 266 255 222 233 257 269 277 269 282 271 277 294 314 320 326
123 129 268 130 135 183 209 203 212 167 200 236 206 171 218 251 277 301 261 246 183 178 183 224 278 310 271 265 298 255 237 201 192 196 215 237 266 337 292 279 286 297 312 308 311